Вернуться в каталог

ONEWEB-0714

АктивенСвязьPO
NORAD 54681·PAYLOAD·🇬🇧 United Kingdom

Запущен Dec 8, 2022 с Cape Canaveral Space Force Station

Loading…

Ближайшие Пролёты (ближайшие 24 часа)

TLE

СвежийSource: CelesTrak SupGP

Эпоха: Sep 14, 2026, 06:59 UTC

1 54681C 22166AR  26257.29148566  .00002275  00000+0  55160-2 0  2575
2 54681  87.9280 226.2402 0002319  77.3025  34.7431 13.21824691    17

Отслеживайте ONEWEB-0714 в реальном времени с AllMySat

Download on the App Store